TimeAKST,TemperatureF,Dew PointF,Humidity,Sea Level PressureIn,VisibilityMPH,Wind Direction,Wind SpeedMPH,Gust SpeedMPH,PrecipitationIn,Events,Conditions,WindDirDegrees,DateUTC
12:53 AM,23.0,12.0,63,29.52,10.0,North,3.5,-,N/A,,Overcast,10,2013-03-01 09:53:00
1:53 AM,21.0,15.1,78,29.55,4.0,NE,5.8,-,0.00,Snow,Light Snow,50,2013-03-01 10:53:00
2:20 AM,21.2,17.6,86,29.47,2.5,Calm,Calm,-,0.00,Snow,Light Snow,0,2013-03-01 11:20:00
2:49 AM,19.4,17.6,93,29.48,3.0,Calm,Calm,-,0.00,Snow,Light Snow,0,2013-03-01 11:49:00
2:53 AM,19.9,17.1,89,29.57,4.0,Calm,Calm,-,0.00,Snow,Light Snow,0,2013-03-01 11:53:00
3:11 AM,19.4,17.6,93,29.48,5.0,NW,5.8,-,0.00,Snow,Light Snow,310,2013-03-01 12:11:00
3:27 AM,19.4,15.8,86,29.49,1.8,NW,5.8,-,0.00,Snow,Light Snow,310,2013-03-01 12:27:00
3:53 AM,18.0,16.0,92,29.59,1.2,NW,4.6,-,0.01,Snow,Light Snow,320,2013-03-01 12:53:00
4:11 AM,17.6,15.8,93,29.50,2.5,West,6.9,-,0.01,Snow,Light Snow,260,2013-03-01 13:11:00
4:24 AM,17.6,14.0,86,29.51,3.0,WSW,8.1,-,0.01,Snow,Light Snow,250,2013-03-01 13:24:00
4:53 AM,16.0,12.9,88,29.62,2.5,West,9.2,-,0.01,Snow,Light Snow,260,2013-03-01 13:53:00
5:15 AM,15.8,12.2,86,29.54,3.0,West,8.1,-,0.00,Snow,Light Snow,270,2013-03-01 14:15:00
5:53 AM,14.0,10.0,84,29.65,4.0,West,11.5,-,0.00,Snow,Light Snow,280,2013-03-01 14:53:00
6:33 AM,12.2,8.6,85,29.58,2.5,West,8.1,-,0.00,Snow,Light Snow,280,2013-03-01 15:33:00
6:53 AM,12.0,8.1,84,29.69,1.5,West,10.4,-,0.00,Snow,Light Snow,270,2013-03-01 15:53:00
7:07 AM,12.2,8.6,85,29.60,2.0,West,9.2,-,0.00,Snow,Light Snow,270,2013-03-01 16:07:00
7:40 AM,10.4,6.8,85,29.62,2.5,West,13.8,-,0.00,Snow,Light Snow,270,2013-03-01 16:40:00
7:48 AM,10.4,6.8,85,29.62,3.0,West,12.7,-,0.00,Snow,Light Snow,260,2013-03-01 16:48:00
7:53 AM,10.9,6.1,81,29.73,3.0,West,10.4,-,0.00,Snow,Light Snow,270,2013-03-01 16:53:00
8:50 AM,10.4,6.8,85,29.65,8.0,West,10.4,-,0.00,Snow,Light Snow,270,2013-03-01 17:50:00
8:53 AM,10.9,6.1,81,29.76,9.0,West,8.1,-,0.00,Snow,Light Snow,260,2013-03-01 17:53:00
9:00 AM,10.4,6.8,85,29.66,9.0,West,9.2,-,0.00,Snow,Light Snow,270,2013-03-01 18:00:00
9:53 AM,10.9,6.1,81,29.79,9.0,West,6.9,-,0.00,,Overcast,270,2013-03-01 18:53:00
10:48 AM,12.2,6.8,79,29.71,8.0,West,4.6,-,0.00,Snow,Light Snow,280,2013-03-01 19:48:00
10:53 AM,12.0,7.0,80,29.82,8.0,West,6.9,-,0.00,Snow,Light Snow,280,2013-03-01 19:53:00
11:45 AM,12.2,6.8,79,29.73,4.0,West,5.8,-,0.00,Snow,Light Snow,260,2013-03-01 20:45:00
11:53 AM,12.9,8.1,81,29.84,3.0,West,5.8,-,0.00,Snow,Light Snow,260,2013-03-01 20:53:00
12:53 PM,15.1,9.0,77,29.86,9.0,West,5.8,-,0.00,Snow,Light Snow,270,2013-03-01 21:53:00
1:53 PM,16.0,9.0,74,29.88,8.0,WNW,3.5,-,0.00,Snow,Light Snow,300,2013-03-01 22:53:00
2:53 PM,16.0,9.0,74,29.91,7.0,Calm,Calm,-,0.00,Snow,Light Snow,0,2013-03-01 23:53:00
3:53 PM,16.0,10.0,77,29.93,8.0,Calm,Calm,-,0.01,Snow,Light Snow,0,2013-03-02 00:53:00
4:53 PM,16.0,10.0,77,29.95,7.0,West,3.5,-,0.00,,Mostly Cloudy,260,2013-03-02 01:53:00
5:53 PM,16.0,10.0,77,29.96,10.0,Calm,Calm,-,N/A,,Overcast,0,2013-03-02 02:53:00
6:53 PM,15.1,10.9,84,29.99,10.0,Calm,Calm,-,N/A,,Overcast,0,2013-03-02 03:53:00
7:53 PM,14.0,10.9,88,30.01,10.0,Calm,Calm,-,N/A,,Mostly Cloudy,0,2013-03-02 04:53:00
8:53 PM,12.0,9.0,88,30.03,10.0,Calm,Calm,-,N/A,,Mostly Cloudy,0,2013-03-02 05:53:00
9:27 PM,12.2,8.6,85,29.91,10.0,Calm,Calm,-,N/A,,Mostly Cloudy,0,2013-03-02 06:27:00
9:53 PM,10.9,8.1,88,30.05,10.0,Calm,Calm,-,N/A,,Mostly Cloudy,0,2013-03-02 06:53:00
10:53 PM,7.0,3.9,87,30.06,10.0,SSE,3.5,-,N/A,,Mostly Cloudy,160,2013-03-02 07:53:00
11:53 PM,7.0,3.9,87,30.07,10.0,Calm,Calm,-,N/A,,Clear,0,2013-03-02 08:53:00